Perkinsville, VT

6:00 PM EST on February 23, 2017 (GMT -0500)
Hartness State

Weather History for KVSF - May, 2014

Change the Weather History Date:

Thursday, May 1, 2014

  Actual Average Record
Temperature  
Mean Temperature 54 °F 51 °F  
Max Temperature 68 °F 63 °F 84 °F (2001)
Min Temperature 39 °F 38 °F 25 °F (2008)
Degree Days  
Heating Degree Days 11 14  
Month to date heating degree days 11 14  
Since 1 July heating degree days 7639 7120  
Cooling Degree Days 0 0  
Month to date cooling degree days 0 0  
Year to date cooling degree days 0 2  
Growing Degree Days 2 (Base 50)    
Moisture  
Dew Point 42 °F    
Average Humidity 75    
Maximum Humidity 96    
Minimum Humidity 54    
Precipitation  
Precipitation 0.19 in 0.10 in 0.46 in (2012)
Month to date precipitation 0.19 0.10  
Year to date precipitation 9.60 12.63  
Sea Level Pressure  
Sea Level Pressure 29.90 in    
Wind  
Wind Speed 2 mph (SSE)    
Max Wind Speed 16 mph    
Max Gust Speed 25 mph    
Visibility 5 miles    
Events Rain    
T = Trace of Precipitation, MM = Missing Value Source: NWS Daily Summary

Daily Weather History Graph

Daily Weather History Graph

Search for Another Location

Airport or City:

Trip Planner

Search our weather history database for the weather conditions in past years. The results will help you decide how hot, cold, wet, or windy it might be!

Date:

Astronomy

May. 01, 2014 Rise Set
Actual Time 5:43 AM EDT 7:51 PM EDT
Civil Twilight 5:12 AM EDT 8:23 PM EDT
Nautical Twilight 4:33 AM EDT 9:01 PM EDT
Astronomical Twilight 3:51 AM EDT 9:44 PM EDT
Moon 7:26 AM EDT (5/1) 10:24 PM EDT (5/1)
Length of Visible Light 15h 11m
Length of Day
14h 08m
Waxing Crescent, 6% of the Moon is Illuminated
May 1
Waxing Crescent
May 6
First Quarter
May 14
Full
May 21
Last Quarter
May 28
New

Hourly Weather History & Observations

Time (EDT) Temp. Windchill Dew Point Humidity Pressure Visibility Wind Dir Wind Speed Gust Speed Precip Events Conditions
12:05 AM 39.0 °F - 37.9 °F 96% 30.16 in 2.5 mi Calm Calm - 0.01 in Rain Rain
12:11 AM 39.0 °F 36.8 °F 39.0 °F 100% 30.15 in 4.0 mi SSE 3.5 mph - 0.02 in Rain Light Rain
12:54 AM 39.0 °F - 37.9 °F 96% 30.14 in 3.0 mi Calm Calm - 0.03 in   Overcast
1:04 AM 39.0 °F - 37.9 °F 96% 30.11 in 2.5 mi Calm Calm - N/A   Overcast
1:16 AM 39.0 °F - 37.9 °F 96% 30.11 in 3.0 mi Calm Calm - N/A   Overcast
1:19 AM 39.0 °F - 37.9 °F 96% 30.10 in 2.5 mi Calm Calm - N/A   Overcast
1:41 AM 39.0 °F - 37.9 °F 96% 30.10 in 2.5 mi Calm Calm - 0.01 in Rain Light Rain
1:52 AM 39.2 °F - 37.4 °F 93% 30.09 in 2.0 mi Calm Calm - 0.02 in Rain Light Rain
1:54 AM 39.0 °F - 37.9 °F 96% 30.11 in 2.0 mi Calm Calm - 0.02 in Rain Light Rain
2:09 AM 39.0 °F - 37.9 °F 96% 30.08 in 3.0 mi Calm Calm - 0.01 in Rain Light Rain
2:39 AM 39.0 °F - 37.9 °F 96% 30.06 in 4.0 mi Calm Calm - 0.03 in Rain Light Rain
2:54 AM 39.0 °F - 37.9 °F 96% 30.06 in 5.0 mi Calm Calm - 0.05 in Rain Light Rain
3:02 AM 39.0 °F - 37.9 °F 96% 30.04 in 6.0 mi Calm Calm - 0.00 in Rain Light Rain
3:12 AM 39.0 °F 36.8 °F 37.9 °F 96% 30.03 in 7.0 mi NW 3.5 mph - 0.01 in Rain Light Rain
3:54 AM 39.0 °F - 37.9 °F 96% 30.02 in 2.5 mi Calm Calm - 0.03 in   Overcast
4:32 AM 39.0 °F - 37.9 °F 96% 29.98 in 3.0 mi Calm Calm - 0.01 in   Overcast
4:39 AM 39.0 °F - 37.9 °F 96% 29.97 in 2.5 mi Calm Calm - 0.01 in   Overcast
4:54 AM 39.0 °F - 37.9 °F 96% 29.98 in 2.5 mi Calm Calm - 0.01 in   Overcast
5:04 AM 39.0 °F - 37.9 °F 96% 29.96 in 3.0 mi Calm Calm - N/A   Overcast
5:11 AM 39.0 °F - 37.9 °F 96% 29.96 in 2.5 mi Calm Calm - 0.01 in Rain Light Rain
5:24 AM 39.0 °F 36.8 °F 37.9 °F 96% 29.95 in 3.0 mi Variable 3.5 mph - 0.01 in Rain Light Rain
5:38 AM 39.0 °F - 37.9 °F 96% 29.94 in 2.5 mi Calm Calm - 0.01 in Rain Light Rain
5:54 AM 39.0 °F 36.8 °F 37.9 °F 96% 29.95 in 2.5 mi North 3.5 mph - 0.02 in   Overcast
6:20 AM 39.0 °F - 37.9 °F 96% 29.93 in 1.5 mi Calm Calm - 0.00 in   Overcast
7:03 AM 39.9 °F - 39.0 °F 97% 29.91 in 5.0 mi Calm Calm - 0.00 in Rain Light Rain
7:24 AM 39.9 °F - 39.0 °F 97% 29.90 in 2.5 mi Calm Calm - 0.01 in Rain Light Rain
7:28 AM 39.9 °F - 39.0 °F 97% 29.90 in 1.8 mi Calm Calm - 0.01 in Rain Light Rain
7:41 AM 39.9 °F - 39.0 °F 97% 29.90 in 3.0 mi Calm Calm - 0.01 in Rain Light Rain
7:49 AM 39.2 °F - 39.2 °F 100% 29.89 in 2.0 mi Calm Calm - 0.01 in   Overcast
7:52 AM 41.0 °F - 39.2 °F 93% 29.90 in 1.8 mi Calm Calm - 0.01 in   Overcast
7:54 AM 41.0 °F - 39.0 °F 93% 29.91 in 1.8 mi Calm Calm - 0.01 in   Overcast
8:05 AM 39.9 °F - 39.0 °F 97% 29.89 in 2.0 mi Calm Calm - N/A   Overcast
8:14 AM 41.0 °F - 39.9 °F 96% 29.89 in 1.2 mi Calm Calm - 0.01 in   Overcast
8:41 AM 41.0 °F - 39.9 °F 96% 29.88 in 2.0 mi Calm Calm - 0.01 in   Overcast
9:05 AM 41.0 °F - 39.9 °F 96% 29.86 in 2.0 mi Calm Calm - N/A   Overcast
9:13 AM 42.1 °F 40.2 °F 41.0 °F 96% 29.84 in 2.5 mi ESE 3.5 mph - N/A   Overcast
9:26 AM 42.1 °F - 41.0 °F 96% 29.83 in 5.0 mi Calm Calm - N/A   Overcast
9:44 AM 43.0 °F - 41.0 °F 93% 29.84 in 9.0 mi Calm Calm - N/A   Overcast
9:54 AM 43.0 °F 41.3 °F 41.0 °F 93% 29.86 in 10.0 mi West 3.5 mph - N/A   Overcast
10:24 AM 44.1 °F - 42.1 °F 93% 29.83 in 6.0 mi Calm Calm - N/A   Overcast
10:54 AM 45.0 °F 42.6 °F 42.1 °F 90% 29.83 in 10.0 mi ENE 4.6 mph - N/A   Overcast
11:17 AM 46.0 °F 44.8 °F 43.0 °F 89% 29.81 in 10.0 mi East 3.5 mph - N/A   Overcast
11:54 AM 46.9 °F - 44.1 °F 90% 29.81 in 10.0 mi Calm Calm - N/A   Overcast
1:20 PM 53.1 °F - 48.0 °F 83% 29.76 in 10.0 mi Variable 3.5 mph - N/A   Overcast
1:54 PM 55.0 °F - 48.0 °F 77% 29.76 in 10.0 mi Calm Calm - N/A   Mostly Cloudy
2:09 PM 55.9 °F - 48.9 °F 77% 29.74 in 10.0 mi SE 3.5 mph - N/A   Scattered Clouds
2:54 PM 61.0 °F - 51.1 °F 70% 29.72 in 10.0 mi Calm Calm - N/A   Partly Cloudy
3:54 PM 64.9 °F - 52.0 °F 63% 29.68 in 10.0 mi Variable 3.5 mph - N/A   Clear
4:54 PM 66.9 °F - 52.0 °F 59% 29.65 in 10.0 mi Calm Calm - N/A   Mostly Cloudy
5:54 PM 64.0 °F - 54.0 °F 70% 29.65 in 10.0 mi South 3.5 mph - N/A   Overcast
6:54 PM 62.1 °F - 53.1 °F 72% 29.67 in 10.0 mi West 6.9 mph - N/A   Mostly Cloudy
7:54 PM 60.1 °F - 53.1 °F 78% 29.68 in 10.0 mi Calm Calm - N/A   Mostly Cloudy
8:54 PM 55.9 °F - 54.0 °F 93% 29.70 in 10.0 mi Calm Calm - 0.00 in Rain Light Rain
9:51 PM 53.6 °F - 53.6 °F 100% 29.70 in 8.0 mi Variable 3.5 mph - 0.00 in   Mostly Cloudy
9:54 PM 53.1 °F - 52.0 °F 96% 29.71 in 8.0 mi Calm Calm - 0.00 in   Mostly Cloudy
10:31 PM 55.0 °F - 46.9 °F 74% 29.72 in 10.0 mi Variable 3.5 mph 18.4 mph N/A   Scattered Clouds
10:54 PM 54.0 °F - 46.9 °F 77% 29.74 in 10.0 mi Variable 5.8 mph - N/A   Scattered Clouds
11:54 PM 54.0 °F - 37.0 °F 53% 29.73 in 10.0 mi NW 9.2 mph - N/A   Partly Cloudy